[[{"header":{"parameterUnit":"m.s-1","parameterCategory":1,"la1":30.2991,"la2":30.254,"lo1":-89.0895,"lo2":-89.0444,"dy":0.0017,"dx":0.0017,"nx":28,"ny":28,"refTime":"2025-08-24T21:00:00:Z","depth":0,"parameterNumber":2,"parameterNumberName":"U-component_of_WINDS"},"data":[0,0,0,0,0,0,0,0,0,0,0,0,0,0,0,0,0,0,0,0,0,0,0,0,0,0,0,0,0,0,0,0,0,0,0,0,0,0,0,0,0,0,0,0,0,0,0,0,0,0,0,0,0,0,0,0,0,0,-3.5772,-3.5772,0,-3.5782,-3.5782,-3.5782,-3.5723,-3.5722,-3.572,-3.5718,-3.5728,-3.573,-3.5731,0,0,0,0,0,0,0,0,0,0,0,0,0,-3.5704,-3.5706,-3.5772,-3.5772,-3.5773,-3.5782,-3.5782,-3.5782,-3.5723,-3.5721,-3.5719,-3.5718,-3.5727,-3.5729,-3.5732,0,0,0,0,0,0,0,0,0,0,0,0,0,-3.5726,-3.5706,-3.5772,-3.5745,-3.5742,-3.5782,-3.5782,-3.5782,-3.5724,-3.5721,-3.5719,-3.5717,-3.5727,-3.5729,-3.5732,-3.5799,0,0,-3.574,-3.5741,0,0,0,0,0,0,0,0,-3.5724,-3.5728,-3.5748,-3.5747,-3.5744,-3.5749,-3.5761,-3.5788,-3.5725,-3.5731,-3.5718,-3.5715,-3.5737,-3.5739,-3.5746,-3.5799,-3.5799,-3.574,-3.5742,-3.5743,-3.5744,0,0,0,0,0,0,0,-3.5723,-3.5727,-3.5776,-3.5749,-3.5746,-3.5732,-3.5732,-3.5766,-3.5748,-3.573,-3.5726,-3.5728,-3.5735,-3.5743,-3.5746,-3.58,-3.574,-3.5743,-3.5744,-3.5745,-3.5909,-3.5911,0,0,0,0,0,0,-3.5725,-3.5727,-3.5776,-3.5776,-3.5728,-3.5735,-3.5735,-3.575,-3.5747,-3.5744,-3.573,-3.5725,-3.574,-3.5742,-3.5746,-3.5824,-3.5743,-3.5746,-3.5747,-3.5906,-3.5909,-3.5912,0,0,0,0,0,0,-3.5724,-3.573,-3.5775,-3.575,-3.5755,-3.5739,-3.5755,-3.5751,-3.5759,-3.5747,-3.5743,-3.5742,-3.5738,-3.5742,-3.5786,-3.5823,-3.5747,-3.5749,-3.5903,-3.5907,-3.5911,-3.598,0,0,0,0,0,0,-3.5722,-3.573,-3.5755,-3.5751,-3.5757,-3.5816,-3.5758,-3.5753,-3.5764,-3.5758,-3.5757,-3.5755,-3.5736,-3.5782,-3.5789,-3.5825,-3.5751,-3.5899,-3.5905,-3.5909,-3.5975,-3.5986,-3.5996,0,0,0,0,0,-3.572,-3.5774,-3.5757,-3.5763,-3.5787,-3.5818,-3.5821,-3.5799,-3.5767,-3.5792,-3.5785,-3.5755,-3.5818,-3.5787,-3.5794,-3.5832,-3.5897,-3.5903,-3.5909,-3.597,-3.5984,-3.5996,0,0,0,0,0,0,-3.5782,-3.5773,-3.5754,-3.5808,-3.5814,-3.5808,-3.5838,-3.5814,-3.5829,-3.5823,-3.5795,-3.5795,-3.5844,-3.5843,-3.5808,-3.5897,-3.5852,-3.586,-3.5896,-3.5909,-3.592,-3.5919,-3.5754,0,0,0,0,0,-3.5802,-3.5828,-3.5818,-3.5867,-3.5871,-3.5855,-3.5867,-3.585,-3.5855,-3.5857,-3.5853,-3.5859,-3.588,-3.5895,-3.5914,-3.5975,-3.5974,-3.6004,-3.6015,-3.6024,-3.6031,-3.6063,-3.6077,-3.5932,-3.5932,-3.5932,0,0,-3.5844,-3.5842,-3.586,-3.588,-3.5882,-3.5909,-3.5857,-3.5888,-3.5908,-3.5862,-3.5903,-3.59,-3.5905,-3.5958,-3.5981,-3.5959,-3.6071,-3.6032,-3.6039,-3.6041,-3.6071,-3.6084,-3.6097,-3.5936,-3.5936,-3.5935,0,0,-3.5933,-3.5935,-3.5975,-3.598,-3.5985,-3.5973,-3.5984,-3.5981,-3.5978,-3.6019,-3.5985,-3.6009,-3.6046,-3.6051,-3.6059,-3.6152,-3.6125,-3.6159,-3.6215,-3.6247,-3.6258,-3.6268,-3.6301,-3.6314,-3.6166,-3.6166,-3.6166,0,-3.5984,-3.6023,-3.6,-3.6033,-3.6043,-3.6003,-3.6045,-3.605,-3.6061,-3.6069,-3.6043,-3.609,-3.6091,-3.6144,-3.6167,-3.6175,-3.6185,-3.6158,-3.6259,-3.6268,-3.6277,-3.6308,-3.6321,-3.617,-3.617,-3.6169,-3.6169,0,-3.6085,-3.6113,-3.6146,-3.6158,-3.6172,-3.6209,-3.6191,-3.6208,-3.619,-3.6182,-3.6225,-3.6225,-3.6243,-3.6255,-3.6238,-3.6307,-3.6292,-3.6263,-3.6217,-3.6296,-3.6324,-3.6336,-3.6176,-3.6175,-3.6174,-3.6173,0,0,-3.6212,-3.6212,-3.6224,-3.623,-3.6233,-3.6254,-3.629,-3.6309,-3.6324,-3.6333,-3.6362,-3.6396,-3.6369,-3.6378,-3.6361,-3.6389,-3.6463,-3.6357,-3.6357,-3.6376,-3.6539,-3.656,-3.6575,-3.6446,-3.6448,-3.645,-3.6539,0,-3.6299,-3.636,-3.6341,-3.6402,-3.6428,-3.6392,-3.6423,-3.6429,-3.6423,-3.6444,-3.6437,-3.6461,-3.6424,-3.6429,-3.6455,-3.6449,-3.6496,-3.6442,-3.6473,-3.6474,-3.6471,-3.659,-3.6612,-3.6696,-3.655,-3.6552,-3.6553,0,-3.6408,-3.6423,-3.6487,-3.6487,-3.6497,-3.6526,-3.6541,-3.6562,-3.6568,-3.6562,-3.6572,-3.655,-3.6585,-3.6541,-3.6589,-3.6553,-3.6565,-3.6564,-3.6567,-3.6568,-3.6518,-3.6593,-3.6722,-3.6734,-3.6571,-3.6569,-3.6568,0,-3.6494,-3.653,-3.6573,-3.6579,-3.658,-3.6601,-3.6602,-3.6606,-3.6618,-3.6632,-3.664,-3.6658,-3.6668,-3.6683,-3.6666,-3.6635,-3.6717,-3.6671,-3.6713,-3.6713,-3.673,-3.6729,-3.6862,-3.674,-3.674,-3.6739,-3.6739,0,-3.6593,-3.6633,-3.6611,-3.6638,-3.6683,-3.6661,-3.6706,-3.6703,-3.6707,-3.6732,-3.6703,-3.6727,-3.6704,-3.6727,-3.6714,-3.6756,-3.6761,-3.6757,-3.6753,-3.6759,-3.6759,-3.6765,-3.6758,-3.6743,-3.6742,-3.6741,-3.6741,0,-3.6695,-3.6682,-3.6727,-3.6725,-3.6725,-3.6758,-3.6756,-3.6781,-3.6773,-3.6806,-3.6812,-3.68,-3.6825,-3.6811,-3.6836,-3.6828,-3.6883,-3.6871,-3.6881,-3.6877,-3.6919,-3.6915,-3.7059,-3.7077,-3.6945,-3.6946,-3.6947,0,-3.6758,-3.6789,-3.679,-3.6806,-3.6809,-3.6834,-3.6847,-3.6827,-3.6841,-3.6852,-3.6875,-3.6898,-3.6915,-3.6957,-3.695,-3.697,-3.6958,-3.7008,-3.6961,-3.6967,-3.6958,-3.6956,-3.6959,-3.7017,-3.7018,-3.7019,-3.702,0,-3.6872,-3.6864,-3.6884,-3.6902,-3.6919,-3.6932,-3.6943,-3.6957,-3.6937,-3.6955,-3.6981,-3.6994,-3.7021,-3.7044,-3.7061,-3.7063,-3.7039,-3.7036,-3.7046,-3.7052,-3.7056,-3.7054,-3.6905,-3.7032,-3.7031,-3.703,-3.7029,-3.7029,-3.6956,-3.6981,-3.6987,-3.701,-3.7017,-3.7028,-3.7051,-3.7046,-3.7067,-3.7088,-3.7075,-3.7105,-3.7111,-3.7132,-3.7137,-3.7161,-3.7141,-3.7156,-3.716,-3.7164,-3.7169,-3.7054,-3.7164,-3.7163,-3.7163,-3.7163,-3.7162,0,-3.7067,-3.7069,-3.7091,-3.7107,-3.7126,-3.7103,-3.7114,-3.7131,-3.7158,-3.7166,-3.7184,-3.7214,-3.7236,-3.7232,-3.7253,-3.7272,-3.7262,-3.7279,-3.7276,-3.7277,-3.7186,-3.7174,-3.7287,-3.7287,-3.7287,-3.7287,-3.7287,-3.7287,-3.7127,-3.7169,-3.7162,-3.7208,-3.7209,-3.7239,-3.7248,-3.7258,-3.7264,-3.7299,-3.7318,-3.7315,-3.7319,-3.7339,-3.7359,-3.7358,-3.7366,-3.7387,-3.7381,-3.7296,-3.7283,-3.7272,-3.7261,-3.7389,-3.7389,-3.747,-3.7471,-3.7471]},{"header":{"parameterUnit":"m.s-1","parameterCategory":1,"la1":30.2991,"la2":30.254,"lo1":-89.0895,"lo2":-89.0444,"dy":0.0017,"dx":0.0017,"nx":28,"ny":28,"refTime":"2025-08-24T21:00:00:Z","depth":0,"parameterNumber":3,"parameterNumberName":"V-component_of_WINDS"},"data":[0,0,0,0,0,0,0,0,0,0,0,0,0,0,0,0,0,0,0,0,0,0,0,0,0,0,0,0,0,0,0,0,0,0,0,0,0,0,0,0,0,0,0,0,0,0,0,0,0,0,0,0,0,0,0,0,0,0,-0.7069,-0.7069,0,-0.707,-0.707,-0.707,-0.7048,-0.7048,-0.7047,-0.7047,-0.7048,-0.7048,-0.7049,0,0,0,0,0,0,0,0,0,0,0,0,0,-0.705,-0.7051,-0.7069,-0.7069,-0.7069,-0.707,-0.707,-0.707,-0.7048,-0.7048,-0.7047,-0.7046,-0.7047,-0.7048,-0.7049,0,0,0,0,0,0,0,0,0,0,0,0,0,-0.7055,-0.7051,-0.7069,-0.7059,-0.7058,-0.707,-0.707,-0.707,-0.7049,-0.7048,-0.7047,-0.7046,-0.7047,-0.7048,-0.7049,-0.7071,0,0,-0.7051,-0.7052,0,0,0,0,0,0,0,0,-0.7055,-0.7056,-0.706,-0.7059,-0.7058,-0.7058,-0.7063,-0.707,-0.7049,-0.7052,-0.7047,-0.7046,-0.7052,-0.7052,-0.7054,-0.7071,-0.7071,-0.7051,-0.7052,-0.7052,-0.7053,0,0,0,0,0,0,0,-0.7055,-0.7056,-0.7069,-0.706,-0.7059,-0.7054,-0.7054,-0.7064,-0.7057,-0.7052,-0.705,-0.705,-0.7051,-0.7053,-0.7054,-0.7071,-0.7051,-0.7052,-0.7053,-0.7053,-0.7105,-0.7106,0,0,0,0,0,0,-0.7056,-0.7056,-0.7069,-0.7069,-0.7055,-0.7055,-0.7055,-0.7059,-0.7057,-0.7055,-0.7051,-0.7049,-0.7052,-0.7053,-0.7054,-0.7079,-0.7052,-0.7053,-0.7054,-0.7105,-0.7106,-0.7107,0,0,0,0,0,0,-0.7055,-0.7057,-0.7069,-0.7062,-0.7063,-0.7056,-0.7061,-0.706,-0.7062,-0.7056,-0.7055,-0.7055,-0.7052,-0.7053,-0.7067,-0.7079,-0.7053,-0.7054,-0.7104,-0.7105,-0.7106,-0.713,0,0,0,0,0,0,-0.7055,-0.7057,-0.7066,-0.7063,-0.7064,-0.7082,-0.7062,-0.706,-0.7063,-0.7061,-0.7059,-0.7058,-0.7051,-0.7066,-0.7068,-0.708,-0.7055,-0.7102,-0.7104,-0.7106,-0.7128,-0.7132,-0.7136,0,0,0,0,0,-0.7054,-0.7073,-0.7066,-0.7068,-0.7074,-0.7083,-0.7084,-0.7075,-0.7064,-0.7073,-0.7069,-0.7058,-0.7077,-0.7067,-0.7069,-0.7082,-0.7102,-0.7104,-0.7106,-0.7127,-0.7132,-0.7136,0,0,0,0,0,0,-0.7078,-0.7072,-0.7065,-0.7083,-0.7083,-0.7079,-0.709,-0.7081,-0.7085,-0.7082,-0.7072,-0.7071,-0.7087,-0.7086,-0.7075,-0.7103,-0.7088,-0.709,-0.7103,-0.7107,-0.7111,-0.7111,-0.7056,0,0,0,0,0,-0.7085,-0.7093,-0.7087,-0.7104,-0.7104,-0.7097,-0.7101,-0.7094,-0.7094,-0.7094,-0.7092,-0.7093,-0.7099,-0.7103,-0.7109,-0.7128,-0.7127,-0.7138,-0.7141,-0.7144,-0.7147,-0.7156,-0.7161,-0.7113,-0.7113,-0.7113,0,0,-0.71,-0.7098,-0.7104,-0.7108,-0.7108,-0.7116,-0.7097,-0.7107,-0.7113,-0.7096,-0.7109,-0.7107,-0.7107,-0.7124,-0.7131,-0.7123,-0.716,-0.7147,-0.7149,-0.715,-0.7159,-0.7163,-0.7167,-0.7115,-0.7114,-0.7114,0,0,-0.7132,-0.7131,-0.7144,-0.7144,-0.7144,-0.7139,-0.7142,-0.7139,-0.7137,-0.715,-0.7137,-0.7144,-0.7155,-0.7155,-0.7157,-0.7188,-0.7178,-0.719,-0.7209,-0.7218,-0.7222,-0.7225,-0.7236,-0.724,-0.7192,-0.7192,-0.7192,0,-0.7151,-0.7162,-0.7152,-0.7162,-0.7164,-0.7149,-0.7162,-0.7163,-0.7164,-0.7166,-0.7158,-0.717,-0.717,-0.7186,-0.7193,-0.7195,-0.7198,-0.719,-0.7222,-0.7226,-0.7228,-0.7238,-0.7242,-0.7194,-0.7193,-0.7193,-0.7193,0,-0.7185,-0.7193,-0.7204,-0.7205,-0.7208,-0.722,-0.7212,-0.7216,-0.7209,-0.7205,-0.7218,-0.7216,-0.7221,-0.7224,-0.7217,-0.7239,-0.7234,-0.7224,-0.7209,-0.7235,-0.7244,-0.7247,-0.7196,-0.7195,-0.7195,-0.7194,0,0,-0.7231,-0.7227,-0.7231,-0.7231,-0.7229,-0.7235,-0.7246,-0.725,-0.7254,-0.7255,-0.7264,-0.7273,-0.7263,-0.7265,-0.7259,-0.7267,-0.7291,-0.7256,-0.7255,-0.7262,-0.7314,-0.7321,-0.7326,-0.7284,-0.7285,-0.7286,-0.7314,0,-0.7261,-0.7279,-0.727,-0.7289,-0.7296,-0.7281,-0.7291,-0.7291,-0.7287,-0.7292,-0.7288,-0.7295,-0.7282,-0.7283,-0.729,-0.7286,-0.7301,-0.7284,-0.7292,-0.7292,-0.7292,-0.7331,-0.7339,-0.7366,-0.7318,-0.7318,-0.7319,0,-0.7299,-0.7301,-0.7321,-0.7317,-0.7319,-0.7328,-0.733,-0.7336,-0.7335,-0.7332,-0.7334,-0.7325,-0.7335,-0.732,-0.7333,-0.7322,-0.7324,-0.7323,-0.7324,-0.7324,-0.7307,-0.7332,-0.7374,-0.7378,-0.7324,-0.7324,-0.7323,0,-0.733,-0.7338,-0.7351,-0.7351,-0.7347,-0.7354,-0.7352,-0.7351,-0.7354,-0.7356,-0.7358,-0.7361,-0.7363,-0.7366,-0.7358,-0.7348,-0.7373,-0.7357,-0.737,-0.737,-0.7376,-0.7375,-0.7419,-0.7378,-0.7378,-0.7378,-0.7378,0,-0.7364,-0.7376,-0.7364,-0.7372,-0.7385,-0.7375,-0.7388,-0.7385,-0.7384,-0.7391,-0.7379,-0.7385,-0.7375,-0.738,-0.7374,-0.7386,-0.7387,-0.7385,-0.7383,-0.7385,-0.7386,-0.7387,-0.7384,-0.7379,-0.7379,-0.7379,-0.7379,0,-0.7401,-0.7394,-0.7406,-0.7401,-0.74,-0.741,-0.7406,-0.7413,-0.7408,-0.7416,-0.7418,-0.7411,-0.7416,-0.7409,-0.7414,-0.741,-0.7426,-0.7422,-0.7426,-0.7424,-0.7438,-0.7436,-0.7483,-0.7488,-0.7445,-0.7445,-0.7446,0,-0.7423,-0.7432,-0.7428,-0.7431,-0.7431,-0.7436,-0.7439,-0.7429,-0.7432,-0.7432,-0.7439,-0.7443,-0.7446,-0.7456,-0.7452,-0.7455,-0.7451,-0.7467,-0.7451,-0.7453,-0.745,-0.745,-0.745,-0.747,-0.747,-0.7471,-0.7471,0,-0.7463,-0.7458,-0.7462,-0.7465,-0.7468,-0.747,-0.7471,-0.7474,-0.7464,-0.7468,-0.7473,-0.7476,-0.7481,-0.7486,-0.7488,-0.7487,-0.7477,-0.7476,-0.7479,-0.7482,-0.7483,-0.7482,-0.7434,-0.7475,-0.7475,-0.7474,-0.7474,-0.7474,-0.7492,-0.7499,-0.7497,-0.7502,-0.7501,-0.7502,-0.7508,-0.7504,-0.7508,-0.7511,-0.7505,-0.7512,-0.7511,-0.7513,-0.7513,-0.7518,-0.7511,-0.7516,-0.7517,-0.7518,-0.752,-0.7483,-0.7519,-0.7518,-0.7518,-0.7518,-0.7518,0,-0.7531,-0.7529,-0.7533,-0.7534,-0.7538,-0.7528,-0.7528,-0.7532,-0.7538,-0.7538,-0.7541,-0.7547,-0.7551,-0.7547,-0.755,-0.7555,-0.7551,-0.7556,-0.7556,-0.7555,-0.7526,-0.7523,-0.756,-0.756,-0.756,-0.756,-0.756,-0.756,-0.7551,-0.7562,-0.7557,-0.7568,-0.7566,-0.7572,-0.7573,-0.7573,-0.7573,-0.758,-0.7583,-0.758,-0.7578,-0.7581,-0.7585,-0.7583,-0.7585,-0.7592,-0.7589,-0.7562,-0.7557,-0.7554,-0.755,-0.7592,-0.7593,-0.7617,-0.7618,-0.7618]}]]